Manteo, NC

6:09 PM EDT on August 29, 2016 (GMT -0400)
Dare County Regional

Weather History for KMQI - March, 2013

Change the Weather History Date:

Thursday, March 7, 2013

  Actual Average Record
Temperature  
Mean Temperature 44 °F -  
Max Temperature 50 °F 53 °F 82 °F (1974)
Min Temperature 40 °F 40 °F 26 °F (2015)
Degree Days  
Heating Degree Days 20    
Moisture  
Dew Point 34 °F    
Average Humidity 67    
Maximum Humidity 89    
Minimum Humidity 51    
Precipitation  
Precipitation 0.01 in - - ()
Sea Level Pressure  
Sea Level Pressure 29.99 in    
Wind  
Wind Speed 18 mph (North)    
Max Wind Speed 24 mph    
Max Gust Speed 43 mph    
Visibility 10 miles    
Events Rain    
Averages and records for this station are not official NWS values.
T = Trace of Precipitation, MM = Missing Value Source: NWS Daily Summary

Daily Weather History Graph

Daily Weather History Graph

Search for Another Location

Airport or City:

Trip Planner

Search our weather history database for the weather conditions in past years. The results will help you decide how hot, cold, wet, or windy it might be!

Date:

Astronomy

Mar. 07, 2013 Rise Set
Actual Time 6:24 AM EST 6:03 PM EST
Civil Twilight 5:58 AM EST 6:29 PM EST
Nautical Twilight 5:29 AM EST 6:58 PM EST
Astronomical Twilight 4:59 AM EST 7:28 PM EST
Moon 3:15 AM EST (3/7) 1:55 PM EST (3/7)
Length of Visible Light 12h 30m
Length of Day
11h 39m
Waning Crescent, 20% of the Moon is Illuminated
Mar 7
Waning Crescent
Mar 11
New
Mar 19
First Quarter
Mar 27
Full
Apr 3
Last Quarter

Hourly Weather History & Observations

Time (EST) Temp. Windchill Dew Point Humidity Pressure Visibility Wind Dir Wind Speed Gust Speed Precip Events Conditions
12:15 AM 40.5 °F 30.7 °F 37.6 °F 89% 29.78 in 10.0 mi North 21.9 mph 33.4 mph N/A Rain Light Rain
12:35 AM 41.2 °F 31.4 °F 37.0 °F 85% 29.79 in 10.0 mi North 23.0 mph 32.2 mph 0.01 in   Light Drizzle
12:55 AM 41.4 °F 31.6 °F 36.7 °F 83% 29.80 in 10.0 mi North 23.0 mph 40.3 mph 0.01 in   Light Drizzle
1:15 AM 41.5 °F 31.9 °F 36.3 °F 82% 29.81 in 10.0 mi North 23.0 mph 42.6 mph N/A   Overcast
1:35 AM 41.9 °F 32.1 °F 35.8 °F 79% 29.82 in 10.0 mi North 24.2 mph 41.4 mph N/A   Overcast
1:55 AM 41.9 °F 33.1 °F 35.6 °F 78% 29.82 in 10.0 mi North 19.6 mph 34.5 mph N/A   Overcast
2:15 AM 41.9 °F 32.8 °F 35.1 °F 77% 29.82 in 10.0 mi NNW 20.7 mph 36.8 mph N/A   Overcast
2:35 AM 41.5 °F 33.8 °F 35.1 °F 78% 29.83 in 10.0 mi NNW 15.0 mph 25.3 mph N/A   Overcast
2:55 AM 41.4 °F 31.6 °F 34.9 °F 78% 29.84 in 10.0 mi NNW 23.0 mph 34.5 mph N/A   Overcast
3:15 AM 41.4 °F 33.3 °F 35.1 °F 78% 29.85 in 10.0 mi NNW 16.1 mph 31.1 mph N/A   Overcast
3:35 AM 41.4 °F 32.4 °F 35.1 °F 78% 29.87 in 10.0 mi North 19.6 mph 33.4 mph N/A   Overcast
3:55 AM 41.9 °F 34.3 °F 35.2 °F 77% 29.89 in 10.0 mi North 15.0 mph 32.2 mph N/A   Overcast
4:15 AM 41.9 °F 33.4 °F 34.3 °F 75% 29.89 in 10.0 mi NNW 18.4 mph 34.5 mph N/A   Overcast
4:35 AM 41.9 °F 33.1 °F 34.2 °F 74% 29.90 in 10.0 mi North 19.6 mph 34.5 mph N/A   Overcast
4:55 AM 42.1 °F 33.1 °F 33.8 °F 72% 29.92 in 10.0 mi NNW 20.7 mph 32.2 mph N/A   Overcast
5:15 AM 41.5 °F 32.4 °F 34.0 °F 75% 29.93 in 10.0 mi North 20.7 mph 32.2 mph N/A   Overcast
5:35 AM 41.0 °F 33.1 °F 34.5 °F 78% 29.94 in 10.0 mi NNW 15.0 mph 26.5 mph N/A   Overcast
5:55 AM 41.0 °F 33.1 °F 33.8 °F 76% 29.95 in 10.0 mi NNW 15.0 mph 25.3 mph N/A   Overcast
6:15 AM 41.4 °F 31.9 °F 33.4 °F 73% 29.95 in 10.0 mi North 21.9 mph 31.1 mph N/A   Overcast
6:35 AM 41.5 °F 34.2 °F 33.3 °F 72% 29.96 in 10.0 mi NNW 13.8 mph 25.3 mph N/A   Overcast
6:55 AM 41.9 °F 34.0 °F 33.4 °F 72% 29.96 in 10.0 mi North 16.1 mph 26.5 mph N/A   Overcast
7:15 AM 42.4 °F 34.4 °F 33.8 °F 71% 29.97 in 10.0 mi North 17.3 mph 27.6 mph N/A   Mostly Cloudy
7:35 AM 43.0 °F 34.8 °F 33.1 °F 68% 29.98 in 10.0 mi North 18.4 mph 27.6 mph N/A   Mostly Cloudy
7:55 AM 43.7 °F 36.0 °F 33.4 °F 67% 29.99 in 10.0 mi North 17.3 mph 27.6 mph N/A   Overcast
8:15 AM 44.2 °F 37.3 °F 33.8 °F 67% 30.00 in 10.0 mi North 15.0 mph 28.8 mph N/A   Overcast
8:35 AM 43.9 °F 37.9 °F 33.6 °F 67% 30.00 in 10.0 mi North 11.5 mph 26.5 mph N/A   Overcast
8:55 AM 44.4 °F 36.9 °F 33.4 °F 65% 30.01 in 10.0 mi North 17.3 mph 27.6 mph N/A   Overcast
9:15 AM 45.0 °F 37.9 °F 33.1 °F 63% 30.02 in 10.0 mi North 16.1 mph 23.0 mph N/A   Mostly Cloudy
9:35 AM 46.4 °F 40.4 °F 34.0 °F 62% 30.02 in 10.0 mi North 13.8 mph 24.2 mph N/A   Scattered Clouds
9:55 AM 46.6 °F - 34.2 °F 62% 30.03 in 10.0 mi North 16.1 mph 23.0 mph N/A   Clear
10:15 AM 46.8 °F - 33.1 °F 59% 30.04 in 10.0 mi North 17.3 mph 25.3 mph N/A   Clear
10:35 AM 46.8 °F - 32.2 °F 57% 30.04 in 10.0 mi North 18.4 mph 25.3 mph N/A   Clear
10:55 AM 46.9 °F - 32.7 °F 58% 30.04 in 10.0 mi North 23.0 mph 28.8 mph N/A   Clear
11:15 AM 47.3 °F - 32.2 °F 56% 30.05 in 10.0 mi North 18.4 mph 26.5 mph N/A   Clear
11:35 AM 47.8 °F - 32.5 °F 55% 30.05 in 10.0 mi North 16.1 mph 26.5 mph N/A   Clear
11:55 AM 47.5 °F - 32.0 °F 55% 30.04 in 10.0 mi North 18.4 mph 26.5 mph N/A   Clear
12:15 PM 48.6 °F - 32.0 °F 53% 30.04 in 10.0 mi North 18.4 mph 25.3 mph N/A   Clear
12:35 PM 49.6 °F - 32.2 °F 51% 30.03 in 10.0 mi North 18.4 mph 26.5 mph N/A   Clear
12:55 PM 48.4 °F - 34.2 °F 58% 30.03 in 10.0 mi North 17.3 mph 23.0 mph N/A   Scattered Clouds
1:15 PM 47.8 °F - 34.0 °F 59% 30.02 in 10.0 mi NNE 18.4 mph 24.2 mph N/A   Clear
1:35 PM 47.8 °F - 34.0 °F 59% 30.02 in 10.0 mi NNE 18.4 mph 24.2 mph N/A   Clear
1:55 PM 48.6 °F - 34.0 °F 57% 30.01 in 10.0 mi NNE 18.4 mph 25.3 mph N/A   Clear
2:15 PM 47.7 °F - 33.8 °F 59% 30.02 in 10.0 mi North 16.1 mph 24.2 mph N/A   Clear
2:35 PM 47.7 °F - 33.4 °F 58% 30.02 in 10.0 mi NNE 16.1 mph 23.0 mph N/A   Clear
2:55 PM 48.0 °F - 34.2 °F 59% 30.03 in 10.0 mi NNE 12.7 mph 21.9 mph N/A   Clear
3:15 PM 47.5 °F - 33.6 °F 59% 30.03 in 10.0 mi NNE 12.7 mph 20.7 mph N/A   Clear
3:35 PM 49.3 °F - 34.5 °F 57% 30.03 in 10.0 mi NNE 13.8 mph 19.6 mph N/A   Mostly Cloudy
3:55 PM 48.2 °F - 34.2 °F 58% 30.04 in 10.0 mi NNE 12.7 mph - N/A   Scattered Clouds
4:15 PM 47.7 °F - 33.1 °F 57% 30.04 in 10.0 mi North 12.7 mph - N/A   Clear
4:35 PM 47.5 °F - 34.3 °F 60% 30.04 in 10.0 mi NNE 12.7 mph - N/A   Clear
4:55 PM 46.4 °F 40.7 °F 33.3 °F 60% 30.04 in 10.0 mi North 12.7 mph 18.4 mph N/A   Clear
5:15 PM 45.7 °F 40.6 °F 33.8 °F 63% 30.06 in 10.0 mi North 10.4 mph - N/A   Clear
5:35 PM 44.6 °F 39.7 °F 33.6 °F 65% 30.06 in 10.0 mi North 9.2 mph 16.1 mph N/A   Clear
5:55 PM 44.1 °F 38.6 °F 33.1 °F 65% 30.07 in 10.0 mi North 10.4 mph - N/A   Clear
6:15 PM 43.5 °F 37.9 °F 33.4 °F 68% 30.08 in 10.0 mi North 10.4 mph - N/A   Clear
6:35 PM 43.0 °F 38.2 °F 33.8 °F 70% 30.08 in 10.0 mi North 8.1 mph - N/A   Clear
6:55 PM 43.5 °F 38.9 °F 33.3 °F 67% 30.09 in 10.0 mi North 8.1 mph - N/A   Clear
8:35 PM 43.9 °F 39.3 °F 34.2 °F 69% 30.12 in 10.0 mi North 8.1 mph - N/A   Scattered Clouds
9:15 PM 42.8 °F 38.6 °F 34.0 °F 71% 30.11 in 10.0 mi NNW 6.9 mph - N/A   Clear
9:35 PM 44.1 °F 40.1 °F 31.6 °F 62% 30.11 in 10.0 mi NNW 6.9 mph - N/A   Clear
9:55 PM 44.2 °F 39.2 °F 31.6 °F 61% 30.11 in 10.0 mi NNW 9.2 mph - N/A   Clear
10:15 PM 44.4 °F 39.0 °F 31.5 °F 60% 30.11 in 10.0 mi NW 10.4 mph 17.3 mph N/A   Scattered Clouds
10:35 PM 43.9 °F 39.3 °F 32.0 °F 63% 30.10 in 10.0 mi NW 8.1 mph - N/A   Scattered Clouds
10:55 PM 43.7 °F 39.7 °F 32.0 °F 63% 30.10 in 10.0 mi NW 6.9 mph - N/A   Mostly Cloudy
11:15 PM 43.5 °F 37.9 °F 31.8 °F 63% 30.10 in 10.0 mi NW 10.4 mph 16.1 mph N/A   Scattered Clouds
11:35 PM 43.7 °F 39.1 °F 32.0 °F 63% 30.10 in 10.0 mi NW 8.1 mph 19.6 mph N/A   Mostly Cloudy
11:55 PM 43.0 °F 37.7 °F 31.1 °F 63% 30.10 in 10.0 mi NW 9.2 mph 18.4 mph N/A   Scattered Clouds